Content
SEND FEEDBACK

Daily
Averages
Monthly
Summary
United States of America

SUNDANCE, WYOMING


Home > North America > United States > Wyoming
Elevation: 4908 feet     Latitude: 44 24N     Longitude: 104 21W

WEATHER
 
SELECT A DAY
Number of Records: 234,027;   Date Range: 1/2/95 - 10/23/14
 
SHARE

PRINT THIS DATA

[ ← Previous Day ]
WEATHER ALMANAC - JANUARY 19, 2013
[ Next Day → ]
[ °C ]   °F
Weather ElementAverageHighLow
Temperature33.5 °F42.8 °F (12:35 am)21.2 °F (9:55 pm)
Dewpoint18.2 °F23 °F (12:55 pm)15.8 °F (12:35 am)
Humidity55.9 %93 % (11:35 pm)34 % (12:35 am)
Barometer30.10 in30.22 in (4:55 pm)29.91 in (12:35 am)
Wind Speed11.1 mph19.6 mph (3:55 am)
Wind Gust28.8 mph (12:35 am)
Weather ElementAverage
Visibility10 mi
Wind DirectionWSW (244.7 °)

Weather ElementTotal
Precipitation---
Heating Degree Days33 (Base 65)
Averaged from 62 records on January 19, 2013
WEATHER CONDITIONS BREAKOUT
WIND DIRECTION BREAKOUT
WEATHER BY HOUR - JANUARY 19, 2013
[ °C ]   °F
Local TimeTemperatureDewpointHumidityBarometerVisibilityWind DirectionWind SpeedGust SpeedPrecipitationEventsConditions
12:35 AM42.8 °F15.8 °F34 %29.91 in10.0 miWest (280°)18.4 mph28.8 mphClear
12:55 AM41.0 °F15.8 °F36 %29.92 in10.0 miWest (280°)18.4 mphClear
1:15 AM41.0 °F15.8 °F36 %29.91 in10.0 miWest (280°)17.3 mph24.2 mphClear
1:35 AM41.0 °F15.8 °F36 %29.93 in10.0 miWNW (290°)15.0 mph25.3 mphClear
1:55 AM41.0 °F15.8 °F36 %29.93 in10.0 miWNW (290°)16.1 mph21.9 mphClear
2:15 AM41.0 °F15.8 °F36 %29.94 in10.0 miWNW (290°)11.5 mph18.4 mphClear
2:35 AM37.4 °F15.8 °F41 %29.95 in10.0 miWest (260°)9.2 mphClear
2:55 AM37.4 °F15.8 °F41 %29.96 in10.0 miWest (260°)9.2 mphClear
3:35 AM37.4 °F15.8 °F41 %29.97 in10.0 miWest (270°)12.7 mphClear
3:55 AM41.0 °F15.8 °F36 %29.98 in10.0 miWest (280°)19.6 mph27.6 mphClear
4:15 AM39.2 °F17.6 °F42 %29.99 in10.0 miWest (270°)15.0 mph20.7 mphClear
4:35 AM39.2 °F17.6 °F42 %29.99 in10.0 miWest (280°)16.1 mph26.5 mphClear
4:55 AM39.2 °F17.6 °F42 %29.99 in10.0 miWest (270°)12.7 mphClear
5:15 AM37.4 °F17.6 °F45 %29.99 in10.0 miWest (270°)12.7 mphClear
5:35 AM39.2 °F15.8 °F39 %29.99 in10.0 miWest (270°)12.7 mph18.4 mphClear
6:55 AM39.2 °F15.8 °F39 %30.03 in10.0 miWest (280°)17.3 mph25.3 mphClear
7:35 AM39.2 °F15.8 °F39 %30.05 in10.0 miWest (280°)13.8 mph23.0 mphClear
7:55 AM39.2 °F15.8 °F39 %30.06 in10.0 miWNW (290°)16.1 mph24.2 mphClear
8:15 AM39.2 °F15.8 °F39 %30.06 in10.0 miWNW (290°)18.4 mph23.0 mphClear
8:35 AM39.2 °F15.8 °F39 %30.07 in10.0 miWNW (290°)17.3 mph28.8 mphClear
9:15 AM39.2 °F15.8 °F39 %30.08 in10.0 miWNW (290°)12.7 mph20.7 mphClear
9:35 AM39.2 °F17.6 °F42 %30.09 in10.0 miWNW (290°)13.8 mphClear
9:55 AM39.2 °F17.6 °F42 %30.11 in10.0 miNW (320°)9.2 mphClear
10:15 AM39.2 °F17.6 °F42 %30.12 in10.0 miNW (320°)12.7 mphClear
10:55 AM37.4 °F21.2 °F52 %30.15 in10.0 miNW (320°)15.0 mph26.5 mphClear
11:35 AM37.4 °F21.2 °F52 %30.16 in10.0 miNNW (330°)17.3 mph25.3 mphClear
11:55 AM37.4 °F21.2 °F52 %30.15 in10.0 miWNW (300°)17.3 mph24.2 mphClear
12:15 PM37.4 °F21.2 °F52 %30.16 in10.0 miNW (320°)17.3 mph24.2 mphClear
12:35 PM37.4 °F21.2 °F52 %30.16 in10.0 miNNW (330°)18.4 mph23.0 mphClear
12:55 PM37.4 °F23.0 °F56 %30.16 in10.0 miNW (320°)17.3 mph23.0 mphClear
1:35 PM37.4 °F23.0 °F56 %30.16 in10.0 miNW (320°)16.1 mph25.3 mphScattered Clouds
1:55 PM37.4 °F23.0 °F56 %30.17 in10.0 miNW (320°)16.1 mphScattered Clouds
2:15 PM37.4 °F23.0 °F56 %30.17 in10.0 miNW (320°)18.4 mph23.0 mphMostly Cloudy
2:35 PM37.4 °F23.0 °F56 %30.17 in10.0 miNW (310°)15.0 mph19.6 mphScattered Clouds
2:55 PM35.6 °F23.0 °F60 %30.18 in10.0 miNNW (340°)17.3 mphMostly Cloudy
3:15 PM35.6 °F23.0 °F60 %30.18 in10.0 miNNW (340°)17.3 mphMostly Cloudy
3:35 PM35.6 °F23.0 °F60 %30.19 in10.0 miNNW (330°)13.8 mphPartly Cloudy
3:55 PM33.8 °F21.2 °F60 %30.19 in10.0 miNNW (340°)15.0 mph19.6 mphPartly Cloudy
4:15 PM32.0 °F19.4 °F60 %30.20 in10.0 miNorth (350°)13.8 mphMostly Cloudy
4:35 PM32.0 °F19.4 °F60 %30.21 in10.0 miNNW (340°)11.5 mph16.1 mphMostly Cloudy
4:55 PM32.0 °F17.6 °F55 %30.22 in10.0 miNNW (330°)13.8 mphOvercast
5:15 PM30.2 °F15.8 °F55 %30.21 in10.0 miNNW (330°)8.1 mphMostly Cloudy
5:35 PM28.4 °F15.8 °F59 %30.21 in10.0 miWNW (290°)5.8 mphScattered Clouds
5:55 PM28.4 °F15.8 °F59 %30.22 in10.0 miWest (270°)5.8 mphScattered Clouds
6:15 PM28.4 °F17.6 °F64 %30.21 in10.0 miWNW (290°)5.8 mphPartly Cloudy
6:35 PM24.8 °F15.8 °F69 %30.20 in10.0 miSouth (190°)3.5 mphClear
6:55 PM26.6 °F17.6 °F69 %30.20 in10.0 miCalmClear
7:15 PM26.6 °F17.6 °F69 %30.19 in10.0 miCalmClear
7:35 PM24.8 °F17.6 °F74 %30.18 in10.0 miCalmClear
7:55 PM24.8 °F17.6 °F74 %30.18 in10.0 miSouth (190°)3.5 mphClear
8:15 PM24.8 °F17.6 °F74 %30.17 in10.0 miSouth (170°)3.5 mphClear
8:35 PM24.8 °F17.6 °F74 %30.17 in10.0 miSouth (170°)3.5 mphClear
8:55 PM23.0 °F17.6 °F80 %30.16 in10.0 miSSW (200°)5.8 mphClear
9:15 PM23.0 °F17.6 °F80 %30.15 in10.0 miSSW (200°)6.9 mphClear
9:35 PM23.0 °F17.6 °F80 %30.15 in10.0 miSSW (200°)5.8 mphClear
9:55 PM21.2 °F17.6 °F86 %30.13 in10.0 miESE (120°)3.5 mphPartly Cloudy
10:15 PM23.0 °F17.6 °F80 %30.13 in10.0 miSE (130°)3.5 mphMostly Cloudy
10:35 PM23.0 °F17.6 °F80 %30.12 in10.0 miENE (70°)4.6 mphMostly Cloudy
10:55 PM23.0 °F17.6 °F80 %30.11 in10.0 miCalmScattered Clouds
11:15 PM23.0 °F17.6 °F80 %30.10 in10.0 miCalmMostly Cloudy
11:35 PM21.2 °F19.4 °F93 %30.09 in10.0 miCalmMostly Cloudy
11:55 PM23.0 °F19.4 °F86 %30.08 in10.0 miCalmPartly Cloudy
Hourly data recorded from KSPF, located miles away from Sundance, Wyoming







STORIES FROM OUR PARTNERS